Location: Göttingen
(51.5413°N, 9.9158°E)
Time: 18:05:45
(UTC+02:00)

Tiros 1 despin weight - Pass Details

Date: 28 May 2022
Orbit: 591 x 639 km, 48.2° (Epoch: 04 July)

Event Time Altitude Azimuth Distance (km) Brightness Sun altitude
Rises 00:51:25 0° 276° (W) 2,837 ? -16.8°
Reaches altitude 10° 00:54:24 10° 256° (WSW) 1,925 ? -16.9°
Enters shadow 00:56:15 16° 231° (SW) 1,588 ? -16.9°
